sat.trackr.live / text

‹ back to catalog

STARLINK-30214

NORAD 57411 · 2023-102H

PAYLOAD ACTIVE UNKNOWN

§ Identity

Operator
Country
US
Launch date
2023-07-20
Launch site
AFWTR
Launch vehicle
Mass (kg)
RCS (m²)

Purposes: comms

External: N2YO · Heavens-Above · Gunter

§ Orbital elements

Epoch: 2026-05-25T03:22:52.569408Z

Period
94.27 min
Inclination
43.0056°
Eccentricity
0.0001797
Mean motion
15.27579038 rev/d
Perigee alt
481.8 km
Apogee alt
484.3 km
Semi-major
6,861.2 km
B*
9.7186e-6
RAAN
176.7006°
Arg perigee
274.8076°
Mean anomaly
85.2571°
Rev number
15,788

§ Raw data

STARLINK-302141 57411U 23102H   26145.14088622  .00000005  00000+0  97186-5 0  99952 57411  43.0056 176.7006 0001797 274.8076  85.2571 15.27579038157887

JSON: /api/v1/satellites/57411 · /tle

For live sub-satellite position, see the globe view (requires WebGL).

§ Visibility from observer

Set your observer location to see the next 7 days of passes ≥ 10°. The values pass through the URL so the page stays shareable.

No JS? Fill the form by hand. The geolocation button needs JavaScript.